DG4CB-13 Weather Reports


Display with metric or nautical units.
time (UTC)temp
F
wind
direction
speed
MPH
gust
MPH
rain 1hr
in
rain 24hr
in
rain mn
in
humidity
%
barometer
mb
20260507024959 48 0.0 0.0 0.00 0.00 0.00 84 1008.8
20260507024000 48 0.0 0.0 0.00 0.00 0.00 84 1008.7
20260507022959 48 0.0 0.0 0.00 0.00 0.00 85 1008.7
20260507022000 48 0.0 0.0 0.00 0.00 0.00 85 1008.7
20260507021000 48 0.0 0.0 0.00 0.00 0.00 85 1008.6
20260507020000 48 0.0 0.0 0.00 0.00 0.00 85 1008.6
20260507014959 48 0.0 0.0 0.00 0.00 0.00 85 1008.5
20260507013959 48 0.0 0.0 0.00 0.00 0.00 86 1008.3
20260507012959 48 0.0 0.0 0.00 0.00 0.00 86 1008.3
20260507012000 48 0.0 0.0 0.00 0.00 0.00 86 1008.3
20260507011000 48 0.0 0.0 0.00 0.00 0.00 86 1008.3
20260507005959 48 0.0 0.0 0.00 0.00 0.00 86 1008.2
20260507005000 48 0.0 0.0 0.00 0.00 0.00 85 1008.2
20260507004000 48 0.0 0.0 0.00 0.00 0.00 86 1008.1
20260507003000 49 0.0 0.0 0.00 0.00 0.00 86 1008.2
20260507001959 49 0.0 0.0 0.00 0.00 0.00 86 1008.0
20260507001000 49 0.0 0.0 0.00 0.00 0.00 86 1008.1
20260506235959 49 0.0 0.0 0.00 0.00 0.00 87 1008.1
20260506234959 49 0.0 0.0 0.00 0.00 0.00 87 1008.0
20260506233959 49 0.0 0.0 0.00 0.00 0.00 88 1008.1
20260506233000 49 0.0 0.0 0.00 0.00 0.00 87 1008.0
20260506232000 49 0.0 0.0 0.00 0.00 0.00 86 1008.0
20260506231000 49 0.0 0.0 0.00 0.00 0.00 85 1007.9
20260506230000 49 0.0 0.0 0.00 0.00 0.00 84 1007.8
20260506224959 49 0.0 0.0 0.00 0.00 0.00 81 1007.7
20260506223959 49 0.0 0.0 0.00 0.00 0.00 81 1007.7
20260506222959 50 0.0 0.0 0.00 0.00 0.00 80 1007.7
20260506222000 50 0.0 0.0 0.00 0.00 0.00 79 1007.6
20260506220959 50 0.0 0.0 0.00 0.00 0.00 79 1007.6
20260506220000 50 0.0 0.0 0.00 0.00 0.00 77 1007.4
20260506215000 50 0.0 0.0 0.00 0.00 0.00 77 1007.4
20260506213959 50 0.0 0.0 0.00 0.00 0.00 77 1007.4
20260506212959 50 0.0 0.0 0.00 0.00 0.00 76 1007.3
20260506211959 50 0.0 0.0 0.00 0.00 0.00 76 1007.2
20260506211000 50 0.0 0.0 0.00 0.00 0.00 76 1007.2
20260506210000 50 0.0 0.0 0.00 0.00 0.00 76 1007.0
20260506205000 51 0.0 0.0 0.00 0.00 0.00 76 1007.1
20260506204000 51 0.0 0.0 0.00 0.00 0.00 75 1007.1
20260506202959 51 0.0 0.0 0.00 0.00 0.00 75 1007.0
20260506201959 51 0.0 0.0 0.00 0.00 0.00 75 1007.1
20260506200959 51 0.0 0.0 0.00 0.00 0.00 75 1007.0
20260506200000 51 0.0 0.0 0.00 0.00 0.00 75 1006.8
20260506195000 52 0.0 0.0 0.00 0.00 0.00 74 1006.5
20260506194000 52 0.0 0.0 0.00 0.00 0.00 74 1006.4
20260506192959 52 0.0 0.0 0.00 0.00 0.00 74 1006.2
20260506191959 52 0.0 0.0 0.00 0.00 0.00 75 1006.2
20260506191000 53 0.0 0.0 0.00 0.00 0.00 75 1006.0
20260506190000 53 0.0 0.0 0.00 0.00 0.00 74 1006.0
20260506184959 53 0.0 0.0 0.00 0.00 0.00 74 1006.0
20260506184000 53 0.0 0.0 0.00 0.00 0.00 74 1005.9
20260506183000 54 0.0 0.0 0.00 0.00 0.00 74 1005.7
20260506181959 54 0.0 0.0 0.00 0.00 0.00 74 1005.6
20260506180959 54 0.0 0.0 0.00 0.00 0.00 74 1005.5
20260506175959 54 0.0 0.0 0.00 0.00 0.00 73 1005.3
20260506174959 54 0.0 0.0 0.00 0.00 0.00 72 1005.2
20260506174000 55 0.0 0.0 0.00 0.00 0.00 69 1005.1
20260506173000 56 0.0 0.0 0.00 0.00 0.00 69 1005.1
20260506171001 57 0.0 0.0 0.00 0.00 0.00 69 1004.8
20260506165959 57 0.0 0.0 0.00 0.00 0.00 69 1004.7
20260506165000 58 0.0 0.0 0.00 0.00 0.00 69 1004.6
20260506164000 58 0.0 0.0 0.00 0.00 0.00 69 1004.4
20260506162959 58 0.0 0.0 0.00 0.00 0.00 69 1004.4
20260506162000 59 0.0 0.0 0.00 0.00 0.00 69 1004.5
20260506161000 59 0.0 0.0 0.00 0.00 0.00 69 1004.4
20260506155959 59 0.0 0.0 0.00 0.00 0.00 69 1004.2
20260506154959 59 0.0 0.0 0.00 0.00 0.00 69 1004.3
20260506153959 59 0.0 0.0 0.00 0.00 0.00 70 1004.2
20260506152959 60 0.0 0.0 0.00 0.00 0.00 70 1004.2
20260506151959 61 0.0 0.0 0.00 0.00 0.00 69 1004.1
20260506150959 61 0.0 0.0 0.00 0.00 0.00 66 1004.0
20260506145959 61 0.0 0.0 0.00 0.00 0.00 69 1004.0
20260506144959 61 0.0 0.0 0.00 0.00 0.00 70 1003.8
20260506143959 62 0.0 0.0 0.00 0.00 0.00 67 1003.8
20260506142959 62 0.0 0.0 0.00 0.00 0.00 69 1003.8
20260506141959 61 0.0 0.0 0.00 0.00 0.00 71 1003.7
20260506140959 62 0.0 0.0 0.00 0.00 0.00 71 1003.8
20260506135959 62 0.0 0.0 0.00 0.00 0.00 67 1003.8
20260506134959 62 0.0 0.0 0.00 0.00 0.00 67 1003.8
20260506133959 62 0.0 0.0 0.00 0.00 0.00 67 1003.8
20260506133000 61 0.0 0.0 0.00 0.00 0.00 68 1003.8
20260506131959 61 0.0 0.0 0.00 0.00 0.00 68 1003.8
20260506130959 62 0.0 0.0 0.00 0.00 0.00 62 1003.7
20260506125959 63 0.0 0.0 0.00 0.00 0.00 62 1003.7
20260506124959 63 0.0 0.0 0.00 0.00 0.00 60 1003.7
20260506123959 64 0.0 0.0 0.00 0.00 0.00 57 1003.5
20260506122959 64 0.0 0.0 0.00 0.00 0.00 57 1003.6
20260506121959 64 0.0 0.0 0.00 0.00 0.00 61 1003.7
20260506121000 63 0.0 0.0 0.00 0.00 0.00 62 1003.8
20260506115959 62 0.0 0.0 0.00 0.00 0.00 62 1003.8
20260506114959 62 0.0 0.0 0.00 0.00 0.00 61 1003.8
20260506113959 63 0.0 0.0 0.00 0.00 0.00 62 1003.8
20260506112959 63 0.0 0.0 0.00 0.00 0.00 63 1003.7
20260506111959 62 0.0 0.0 0.00 0.00 0.00 64 1003.7
20260506110959 62 0.0 0.0 0.00 0.00 0.00 62 1003.8
20260506105959 62 0.0 0.0 0.00 0.00 0.00 65 1003.7
20260506104959 62 0.0 0.0 0.00 0.00 0.00 65 1003.6
20260506104000 62 0.0 0.0 0.00 0.00 0.00 65 1003.6
20260506103000 62 0.0 0.0 0.00 0.00 0.00 67 1003.7
20260506102000 61 0.0 0.0 0.00 0.00 0.00 66 1003.7
20260506101000 61 0.0 0.0 0.00 0.00 0.00 67 1003.7
20260506100000 61 0.0 0.0 0.00 0.00 0.00 68 1003.7
20260506095000 60 0.0 0.0 0.00 0.00 0.00 70 1003.7
20260506094000 60 0.0 0.0 0.00 0.00 0.00 71 1003.8
20260506093000 60 0.0 0.0 0.00 0.00 0.00 72 1003.6
20260506092000 60 0.0 0.0 0.00 0.00 0.00 71 1003.5
20260506091000 60 0.0 0.0 0.00 0.00 0.00 74 1003.5
20260506090000 59 0.0 0.0 0.00 0.00 0.00 78 1003.4
20260506085000 58 0.0 0.0 0.00 0.00 0.00 78 1003.5
20260506084000 58 0.0 0.0 0.00 0.00 0.00 81 1003.6
20260506083000 57 0.0 0.0 0.00 0.00 0.00 81 1003.4
20260506082000 57 0.0 0.0 0.00 0.00 0.00 81 1003.4
20260506081000 57 0.0 0.0 0.00 0.00 0.00 82 1003.4
20260506073000 56 0.0 0.0 0.00 0.00 0.00 85 1003.3
20260506072000 56 0.0 0.0 0.00 0.00 0.00 85 1003.3
20260506071000 56 0.0 0.0 0.00 0.00 0.00 86 1003.4
20260506062000 55 0.0 0.0 0.00 0.00 0.00 89 1003.2
20260506061000 55 0.0 0.0 0.00 0.00 0.00 89 1003.2
20260506051000 54 0.0 0.0 0.00 0.00 0.00 94 1003.2
20260506045000 54 0.0 0.0 0.00 0.00 0.00 94 1003.2
20260506044000 54 0.0 0.0 0.00 0.00 0.00 94 1003.3
20260506043000 54 0.0 0.0 0.00 0.00 0.00 93 1003.2
20260506042000 54 0.0 0.0 0.00 0.00 0.00 93 1003.3
20260506041000 54 0.0 0.0 0.00 0.00 0.00 93 1003.2
20260506040000 54 0.0 0.0 0.00 0.00 0.00 93 1003.2
20260506035000 54 0.0 0.0 0.00 0.00 0.00 93 1003.2
20260506034000 54 0.0 0.0 0.00 0.00 0.00 92 1003.2
20260506033000 55 0.0 0.0 0.00 0.00 0.00 90 1003.2
20260506032000 55 0.0 0.0 0.00 0.00 0.00 89 1003.2
20260506031000 55 0.0 0.0 0.00 0.00 0.00 89 1003.3
20260506030000 55 0.0 0.0 0.00 0.00 0.00 89 1003.3